Theta_e
327 329 330 329 329 329 329 329 330 330 329 330 331 331 333 335 337 341 342 342 344 344 344 343 341 340 337 335 334 334 334 332 329 333 333 334 335 334 335 330 322 318 320 319
328 329 329 328 329 329 329 329 330 329 330 330 332 331 334 336 338 340 341 343 343 344 344 343 342 341 339 339 337 332 332 332 331 336 337 334 332 332 330 325 322 320 320 321
328 328 327 329 329 330 330 330 330 330 330 330 330 332 332 334 337 339 339 340 341 341 340 342 343 342 341 340 339 334 332 332 332 332 335 332 332 330 327 326 323 322 322 321
329 327 328 329 329 330 330 329 329 329 330 331 330 331 334 334 334 333 335 334 333 332 334 338 340 341 342 340 339 336 333 333 334 332 333 333 331 328 326 324 322 320 320 319
329 329 329 329 329 329 331 329 328 328 330 331 330 330 335 333 334 333 331 331 331 331 333 334 337 338 339 338 338 338 333 330 330 331 332 331 328 326 323 321 321 320 318 317
329 327 329 330 329 329 329 330 329 329 329 332 329 329 333 333 334 333 331 330 330 330 332 332 336 337 338 337 336 331 326 328 329 331 330 323 320 318 318 319 318 317 316 314
329 329 329 329 330 331 331 331 329 329 328 328 328 330 331 330 331 330 330 330 330 330 331 331 331 331 334 335 335 331 325 330 330 329 323 319 317 316 317 319 318 317 314 312
329 330 330 329 331 331 330 332 330 330 328 327 329 330 332 328 328 329 329 329 329 331 330 330 331 332 332 335 331 326 327 325 323 321 318 317 316 318 318 318 317 315 313 312
329 329 330 329 330 331 332 332 331 333 332 331 329 329 330 328 328 328 328 327 329 331 330 331 331 333 333 332 326 324 321 319 319 319 317 316 316 314 315 316 316 314 312 312
332 331 331 329 330 330 332 330 332 332 331 331 330 329 329 328 328 328 328 328 329 331 330 331 330 333 333 327 322 319 318 318 320 318 319 318 315 315 316 317 315 313 312 311
335 336 333 331 332 333 332 332 332 332 332 330 330 329 327 329 328 330 329 329 329 329 329 329 329 331 330 325 324 323 319 322 321 321 320 317 316 316 316 315 312 312 312 312
334 336 333 333 331 330 330 332 331 333 331 330 331 330 328 328 328 329 329 328 328 328 327 326 326 327 326 325 324 324 322 321 320 318 317 317 317 316 315 313 312 313 312 311
333 336 335 334 333 331 332 330 331 332 332 331 332 329 328 328 329 329 329 328 328 327 326 326 326 325 325 325 325 322 322 320 319 319 316 318 317 317 313 312 313 312 311 310
331 337 334 332 333 333 333 331 330 331 332 330 329 330 329 330 329 329 329 327 326 326 326 325 325 324 325 325 323 323 322 321 319 316 317 318 317 313 312 312 311 311 310 310
340 335 333 331 330 330 331 330 329 330 329 330 329 330 330 330 329 328 327 327 326 325 325 324 324 324 324 324 325 324 322 319 316 318 318 317 313 312 311 312 311 310 308 308
335 337 334 333 331 331 330 329 329 329 328 329 328 329 329 328 327 327 327 326 326 326 325 325 326 326 326 325 323 322 320 317 317 318 316 313 311 311 312 311 309 308 307 307
336 337 335 334 331 331 331 329 328 328 329 329 329 330 329 329 328 328 328 327 326 326 326 326 325 324 324 322 319 321 319 318 317 316 314 311 311 312 310 309 306 306 306 308
337 336 333 332 333 332 330 329 330 330 330 330 329 330 329 328 328 328 328 328 328 327 326 325 324 323 324 322 321 319 318 317 316 314 311 311 312 310 308 306 306 306 305 307
335 336 334 331 330 330 329 331 331 331 330 329 330 330 328 328 328 329 326 326 325 325 324 323 321 322 323 322 320 319 317 316 314 312 312 311 310 306 307 306 306 306 306 307
334 335 333 332 332 332 330 331 330 330 331 330 330 330 330 329 330 330 326 325 324 323 322 321 321 320 323 320 319 318 317 315 312 311 312 310 307 307 307 307 307 308 306 307
335 335 333 331 332 330 331 330 328 332 333 330 330 331 330 330 329 326 325 324 322 321 320 317 319 321 321 319 318 317 316 313 311 312 311 308 308 307 307 307 307 308 307 307
331 331 330 330 328 326 329 329 330 333 331 330 330 330 330 327 325 325 323 322 322 320 318 317 318 321 320 318 317 317 314 311 312 312 309 309 307 308 307 308 307 307 308 307
328 326 328 326 324 332 330 332 331 329 331 330 329 327 325 325 324 323 322 322 322 320 317 317 319 322 319 317 316 316 311 312 313 313 309 308 309 307 307 307 307 307 307 308
328 328 325 329 323 328 330 330 329 330 329 328 328 326 324 323 322 322 322 322 320 318 316 317 320 322 319 316 315 313 311 312 313 311 309 307 308 307 307 307 307 307 308 309
327 329 326 327 325 326 327 330 330 330 328 327 325 324 323 323 323 322 321 321 319 317 317 319 321 321 317 316 314 311 311 313 311 312 309 308 308 308 308 306 306 307 307 307
325 325 327 323 322 324 323 329 329 329 328 327 324 323 323 323 322 322 321 319 318 317 318 320 321 319 316 316 313 311 312 312 312 311 309 307 308 308 308 309 308 307 307 307
Wind_Speed
5 10 3 7 3 5 3 3 2 4 3 4 3 6 5 6 3 3 5 7 7 9 9 10 11 7 12 11 8 6 9 13 12 10 9 10 11 12 14 11 17 20 16 17
8 9 5 3 5 3 1 3 5 2 3 8 3 6 3 6 4 1 2 4 5 8 8 10 11 10 11 8 7 9 10 13 12 10 10 15 16 17 13 12 17 21 19 16
6 10 5 6 7 3 4 9 8 9 2 2 6 10 1 4 4 3 3 3 4 5 7 8 10 11 11 9 8 10 11 9 10 13 13 17 18 16 12 13 16 16 17 18
2 3 7 7 5 5 2 6 7 8 9 5 2 3 7 3 6 7 10 9 7 6 5 3 4 6 8 8 7 8 8 7 10 13 12 15 15 13 14 16 17 25 18 19
5 9 9 4 8 4 7 5 6 5 4 8 9 8 8 2 5 6 7 6 5 4 2 3 2 3 3 3 4 4 8 12 12 13 15 15 11 14 15 17 19 22 20 21
9 4 3 9 5 3 3 5 3 4 3 5 7 7 10 4 2 4 4 8 6 6 3 3 3 3 3 3 3 4 10 11 14 16 17 17 20 23 24 24 25 22 22 22
9 6 8 3 5 7 4 10 2 3 3 4 6 7 8 4 1 6 6 8 9 5 4 3 3 3 4 4 4 6 10 12 14 15 16 19 22 26 24 21 20 22 24 23
9 9 7 1 5 6 5 8 7 8 7 9 4 4 6 3 5 9 11 13 10 5 5 4 3 3 4 4 5 8 11 12 13 15 17 20 23 19 18 18 22 22 23 20
6 3 6 2 2 4 4 3 3 5 5 6 4 2 11 1 6 10 13 13 11 8 6 5 4 4 5 5 8 11 11 12 14 15 17 18 21 22 23 23 20 20 20 19
2 2 3 6 5 7 5 4 4 3 6 9 8 5 4 11 9 10 10 11 9 10 6 5 5 6 6 6 10 12 12 11 12 14 13 15 20 26 24 20 21 20 19 20
3 4 7 6 5 3 5 5 1 4 3 8 7 10 10 9 12 13 16 15 7 6 4 4 5 6 5 6 8 11 12 9 8 10 13 20 24 23 20 20 19 18 17 18
3 3 4 2 4 1 2 3 2 5 8 4 6 7 4 11 15 13 14 8 1 2 2 4 6 5 5 8 10 12 12 11 10 16 22 21 21 21 19 19 17 16 17 19
5 3 4 7 7 5 4 3 1 0 4 9 7 7 16 13 10 9 8 7 3 3 5 6 7 6 9 11 12 14 12 12 15 26 18 14 21 18 19 17 15 15 19 24
1 1 5 7 8 5 4 6 3 4 5 9 12 13 11 9 9 9 9 8 6 7 8 10 9 9 13 13 16 15 15 13 15 15 16 19 17 19 17 15 15 17 23 23
2 2 2 3 4 1 1 3 4 7 9 8 12 13 9 9 8 8 8 6 7 9 10 10 11 13 17 21 20 19 15 18 15 11 15 17 19 17 16 14 15 23 19 19
0 2 3 4 2 2 5 3 5 5 8 8 12 14 8 7 7 9 9 8 11 12 11 11 13 16 18 19 20 16 14 13 10 12 16 18 17 16 14 17 24 18 18 18
2 5 4 4 1 4 8 4 6 7 8 8 12 13 10 6 7 8 8 10 11 10 11 13 15 17 18 18 18 13 10 8 11 14 16 16 16 15 18 23 19 20 17 11
5 4 2 4 3 10 5 2 4 8 12 11 9 7 4 3 5 7 11 11 11 12 14 16 18 21 18 18 14 11 7 9 12 15 15 15 15 19 21 20 18 18 13 9
1 3 2 6 8 6 11 8 4 8 11 7 7 4 2 2 5 8 10 10 11 12 15 18 20 21 18 16 12 8 7 10 12 14 14 14 21 20 17 16 19 16 13 9
3 2 5 4 9 12 9 5 0 3 10 5 1 1 3 6 8 10 11 9 12 15 17 21 21 19 15 14 9 6 8 10 12 13 13 18 17 15 18 17 16 15 15 13
5 4 9 9 8 10 6 2 2 8 5 4 3 3 3 4 6 4 6 10 12 15 20 21 19 17 16 12 6 7 9 11 11 11 12 14 13 15 15 13 14 11 12 12
7 5 6 3 9 12 5 3 5 6 4 2 3 3 4 5 4 4 7 10 14 19 22 21 20 16 13 8 5 7 9 10 10 9 11 11 12 13 15 15 14 11 10 11
4 3 5 3 6 2 1 6 2 1 2 1 2 5 4 3 3 6 8 12 16 20 22 20 19 14 8 4 5 7 10 9 9 8 8 9 10 11 12 12 13 12 11 11
5 2 4 2 5 5 7 8 8 3 2 3 5 4 3 2 4 7 11 14 17 20 20 20 17 10 4 4 6 8 8 8 7 6 8 7 7 8 11 9 9 8 8 8
5 8 6 9 12 8 10 6 5 6 6 6 5 4 2 3 6 10 13 14 17 18 19 18 13 6 3 4 5 7 7 7 7 5 7 7 6 6 9 10 11 9 9 9
8 9 7 9 11 6 6 2 6 8 8 7 6 4 1 3 8 11 13 14 16 16 17 16 9 3 3 3 5 6 6 7 5 5 7 7 6 5 6 5 7 10 11 10
Wind_Direction
179 242 291 33 32 31 46 28 28 103 77 264 308 285 330 342 290 204 219 212 206 213 218 220 229 222 256 272 290 278 273 275 270 264 269 282 281 289 298 297 295 304 305 312
204 234 87 124 118 144 305 306 39 165 41 281 292 275 324 19 40 288 201 180 196 209 219 237 231 238 257 262 273 302 305 280 271 263 274 271 283 294 296 286 295 308 309 306
294 79 124 172 170 191 49 351 342 328 335 214 288 236 179 57 84 123 171 175 180 191 226 239 243 241 249 264 269 303 318 281 269 263 274 287 299 315 311 297 302 295 304 307
39 103 176 188 105 315 329 4 314 300 275 336 345 346 126 60 106 108 133 138 150 172 203 246 248 247 252 257 267 296 302 286 279 288 277 290 307 304 295 311 307 313 312 311
91 143 168 173 56 343 47 353 341 308 258 224 53 277 106 163 156 131 140 156 177 189 180 239 271 286 292 267 270 272 309 308 301 302 301 311 303 305 309 312 310 314 315 313
107 110 337 87 96 53 132 272 230 217 218 215 36 312 94 82 348 162 190 213 218 228 225 247 274 284 291 285 282 289 301 306 309 311 316 316 317 318 318 315 320 315 312 312
157 126 117 161 172 156 307 344 300 293 333 5 20 269 48 23 225 284 273 241 236 220 242 237 237 255 266 268 271 275 297 312 314 318 319 318 318 318 319 314 317 315 315 312
190 171 181 96 340 13 40 335 16 337 349 340 115 11 76 28 289 274 267 266 269 250 257 240 241 239 263 247 265 300 312 314 319 318 311 311 311 314 318 314 314 315 314 311
210 147 120 71 133 310 101 19 12 309 190 271 35 49 230 225 284 259 264 266 258 250 248 230 232 248 254 266 286 306 309 312 309 297 300 306 309 312 317 317 314 312 310 305
155 223 211 141 155 72 340 106 303 295 336 326 344 302 312 345 335 330 284 277 267 250 245 227 242 258 261 276 291 296 300 292 282 289 296 302 316 315 315 317 315 312 309 311
195 270 139 191 218 346 173 186 43 278 331 322 318 327 36 356 338 324 318 323 290 244 258 244 263 263 253 283 282 279 285 278 281 291 309 312 316 315 318 317 313 309 310 306
151 261 238 77 88 353 319 14 328 332 340 324 283 305 46 345 329 330 331 335 63 340 330 297 287 270 277 303 293 281 281 279 281 289 293 305 315 319 319 315 314 309 306 310
179 199 202 174 176 183 236 142 106 346 273 300 310 295 5 349 356 13 8 23 24 338 312 311 306 284 313 318 291 290 283 281 280 293 297 317 321 320 318 319 314 311 311 318
179 168 270 290 38 58 178 195 223 272 289 327 307 342 335 10 358 15 8 355 341 347 348 335 319 310 329 316 315 306 294 286 297 303 318 323 324 323 325 322 317 319 320 319
272 200 200 92 94 100 308 272 241 275 317 304 328 318 343 3 352 2 354 2 353 356 354 350 335 320 319 323 322 317 304 303 303 317 328 330 328 331 329 324 323 321 337 343
15 165 178 162 146 263 281 290 279 276 311 300 313 304 36 1 1 28 27 9 359 1 358 355 344 338 338 340 339 332 321 312 317 330 336 335 338 339 332 324 324 337 343 332
178 151 211 268 144 267 261 291 297 302 293 325 310 345 336 350 37 26 11 6 2 358 354 351 347 344 340 343 343 342 329 329 339 342 342 345 346 341 330 333 334 331 330 332
155 170 243 303 207 262 50 72 281 291 295 302 293 291 335 28 68 48 31 21 18 6 358 353 345 338 334 335 332 335 341 349 348 350 352 353 348 340 348 348 347 354 352 4
305 236 208 273 276 308 276 184 228 273 290 318 305 310 299 315 217 60 45 28 19 10 360 347 339 334 331 334 335 344 351 359 355 357 2 356 350 356 0 5 11 20 24 40
128 240 268 269 282 285 329 60 352 258 279 70 322 295 336 317 284 64 32 17 10 1 350 341 340 335 337 333 342 356 5 360 1 6 4 354 2 5 17 18 24 23 54 69
208 244 266 285 287 294 32 29 160 260 332 68 54 38 21 357 28 37 17 6 1 356 347 344 341 338 336 340 355 13 7 6 9 11 360 12 10 22 18 34 30 52 60 62
260 261 264 306 284 284 56 146 265 20 37 75 69 64 80 87 63 24 358 354 353 350 349 349 345 340 342 350 18 10 7 10 13 11 11 21 23 39 44 45 56 60 60 67
245 291 319 254 310 32 322 265 335 291 15 122 145 116 101 78 11 353 347 348 348 347 348 345 345 338 348 19 31 8 6 13 10 8 23 27 27 37 42 37 54 73 68 74
175 181 250 272 268 280 283 257 233 224 232 152 137 120 105 23 352 343 343 343 344 346 346 344 345 349 16 51 21 12 12 15 12 19 19 30 32 42 45 50 47 53 59 73
9 160 254 259 267 265 258 243 222 206 181 158 141 138 113 7 344 341 339 338 341 342 345 348 349 9 54 43 19 16 12 12 18 33 21 26 27 45 50 46 47 53 64 78
202 254 238 276 317 263 300 216 187 181 175 168 154 147 104 356 342 337 335 333 335 340 343 348 352 30 61 30 17 16 18 12 23 28 21 24 33 36 33 31 50 67 75 77